Home   Weather   Orange Walk Town   Past weeks

Flag for Belize Past Weather in Orange Walk Town, Belize — Yesterday and Last 2 Weeks

Now
68 °F

Clear.


Feels Like: 68 °F
Forecast: 57 / 87 °F
Wind: 5 mph from Northwest

Location: Chetumal - Q. Roo

Current Time: Jan 24, 2017 at 1:11:40 am

Latest Report: Jan 23, 2017 at 9:40 pm


Visibility: 7 mi

Pressure: 30.00 "Hg

Humidity: 69%

Dew Point: 57 °F

Location of Orange Walk TownLocation

Past Weather in Orange Walk Town — Graph

°F

Orange Walk Town Temperature Yesterday

Maximum temperature yesterday: 86 °F (at 2:40 pm)
Minimum temperature yesterday: 63 °F (at 6:41 am)
Average temperature yesterday: 75 °F

High & Low Weather Summary for the Past Weeks

 TemperatureHumidityPressure
High88 °F (Jan 21, 1:40 pm)100% (Jan 13, 5:43 am)30.40 "Hg (Jan 13, 5:43 am)
Low63 °F (Jan 9, 5:10 am)38% (Jan 23, 2:40 pm)29.70 "Hg (Jan 22, 3:43 pm)
Average77 °F76%30.02 "Hg
* Reported Jan 9 5:10 am — Jan 23 9:40 pm, Orange Walk Town, Weather by CustomWeather, © 2017

Note: Actual official high and low records may vary slightly from our data, if they occured in-between our weather recording intervals... More about our weather records

Advertising

Orange Walk Town Weather History for the Previous 24 Hours

Scroll right to see more
 ConditionsComfort  
Time TempWeatherWind HumidityBarometerVisibility
9:40 pm
Mon, Jan 23
68 °FClear.5 mph69%30.00 "Hg7 mi
8:40 pm70 °FClear.6 mph64%29.98 "Hg7 mi
7:40 pm72 °FClear.6 mph61%29.95 "Hg7 mi
6:42 pm72 °FClear.No wind69%29.92 "Hg7 mi
5:43 pm75 °FClear.No wind61%29.90 "Hg7 mi
4:44 pm84 °FSunny.No wind40%29.89 "Hg7 mi
3:44 pm86 °FSunny.7 mph38%29.88 "Hg7 mi
2:40 pm86 °FSunny.13 mph38%29.89 "Hg7 mi
1:40 pm84 °FSunny.15 mph40%29.91 "Hg7 mi
12:40 pm82 °FSunny.14 mph42%29.95 "Hg7 mi
11:40 am81 °FSunny.14 mph45%29.98 "Hg7 mi
10:40 am79 °FSunny.14 mph54%30.01 "Hg7 mi
9:42 am75 °FSunny.12 mph61%30.02 "Hg7 mi
8:50 am72 °FSunny.8 mph73%30.02 "Hg7 mi
7:42 am68 °FSunny.No wind88%30.00 "Hg5 mi
6:41 am63 °FSunny.No wind100%29.97 "Hg5 mi
5:41 am64 °FPassing clouds.No wind94%29.94 "Hg7 mi
5:09 am66 °FPassing clouds.No wind88%29.93 "Hg7 mi
Weather by CustomWeather, © 2017

See weather overviewHow to use our weather pages